Midland, VA

11:52 PM EST on February 08, 2016 (GMT -0500)
Warrenton

Weather History for KHWY - September, 2013

Change the Weather History Date:

Thursday, September 12, 2013

  Actual Average (KDCA) Record (KDCA)
Temperature  
Mean Temperature 80 °F 72 °F  
Max Temperature 92 °F 81 °F 96 °F (1931)
Min Temperature 68 °F 64 °F 41 °F (1917)
Degree Days  
Heating Degree Days 0 0  
Month to date heating degree days 0  
Since 1 July heating degree days 0  
Cooling Degree Days 15 8  
Month to date cooling degree days 113  
Year to date cooling degree days 1424  
Growing Degree Days 30 (Base 50)    
Moisture  
Dew Point 73 °F    
Average Humidity 91    
Maximum Humidity 100    
Minimum Humidity 62    
Precipitation  
Precipitation 0.35 in 0.12 in 4.02 in (1934)
Month to date precipitation 1.35  
Year to date precipitation 27.75  
Snow  
Snow 0.00 in 0.00 in - ()
Month to date snowfall 0.0  
Since 1 July snowfall 0.0  
Snow Depth -    
Sea Level Pressure  
Sea Level Pressure 29.89 in    
Wind  
Wind Speed 2 mph (SW)    
Max Wind Speed 17 mph    
Max Gust Speed 26 mph    
Visibility 6 miles    
Events Fog , Rain , Thunderstorm    
T = Trace of Precipitation, MM = Missing Value Source: NWS Daily Summary

Daily Weather History Graph

Daily Weather History Graph

Search for Another Location

Airport or City:

Trip Planner

Search our weather history database for the weather conditions in past years. The results will help you decide how hot, cold, wet, or windy it might be!

Date:

Astronomy

Sep. 12, 2013 Rise Set
Actual Time 6:49 AM EDT 7:23 PM EDT
Civil Twilight 6:23 AM EDT 7:50 PM EDT
Nautical Twilight 5:51 AM EDT 8:21 PM EDT
Astronomical Twilight 5:19 AM EDT 8:53 PM EDT
Moon 2:11 PM EDT (9/12) No Moon Set
Length of Visible Light 13h 26m
Length of Day
12h 33m
Waxing Crescent, 50% of the Moon is Illuminated
Sep 12
Waxing Crescent
Sep 12
First Quarter
Sep 19
Full
Sep 26
Last Quarter
Oct 4
New

Hourly Weather History & Observations

Time (EDT) Temp. Heat Index Dew Point Humidity Pressure Visibility Wind Dir Wind Speed Gust Speed Precip Events Conditions
12:15 AM 74.5 °F - 74.3 °F 99% 30.01 in 10.0 mi SSE 3.5 mph - N/A   Clear
12:35 AM 74.5 °F - 73.9 °F 98% 30.01 in 10.0 mi Calm Calm - N/A   Clear
12:55 AM 75.0 °F - 74.1 °F 97% 30.01 in 10.0 mi SSW 3.5 mph - N/A   Clear
1:15 AM 74.7 °F - 73.9 °F 98% 30.00 in 10.0 mi Calm Calm - N/A   Clear
1:35 AM 73.2 °F - 73.2 °F 100% 29.99 in 10.0 mi South 3.5 mph - N/A   Clear
1:55 AM 73.8 °F - 73.6 °F 99% 29.99 in 10.0 mi Calm Calm - N/A   Clear
2:15 AM 73.2 °F - 73.2 °F 100% 29.99 in 10.0 mi Calm Calm - N/A   Clear
2:35 AM 72.0 °F - 72.0 °F 100% 29.98 in 7.0 mi Calm Calm - N/A   Clear
2:55 AM 73.0 °F - 73.0 °F 100% 29.98 in 7.0 mi South 3.5 mph - N/A   Clear
3:15 AM 72.7 °F - 72.7 °F 100% 29.98 in 7.0 mi Calm Calm - N/A   Clear
3:35 AM 70.9 °F - 70.9 °F 100% 29.98 in 4.0 mi Calm Calm - N/A   Clear
3:55 AM 70.7 °F - 70.7 °F 100% 29.97 in 1.2 mi Calm Calm - N/A   Mist
4:15 AM 70.2 °F - 70.2 °F 100% 29.96 in 0.5 mi Calm Calm - N/A Fog Fog
4:35 AM 68.4 °F - 68.4 °F 100% 29.96 in 0.5 mi Calm Calm - N/A Fog Fog
4:55 AM 68.5 °F - 68.5 °F 100% 29.96 in 0.8 mi Calm Calm - N/A   Mist
5:15 AM 69.6 °F - 69.6 °F 100% 29.96 in 4.0 mi Calm Calm - N/A   Clear
5:35 AM 69.1 °F - 69.1 °F 100% 29.97 in 2.5 mi Calm Calm - N/A   Clear
5:55 AM 68.5 °F - 68.5 °F 100% 29.96 in 1.5 mi Calm Calm - N/A   Mist
6:15 AM 69.3 °F - 69.3 °F 100% 29.96 in 2.0 mi Calm Calm - N/A   Clear
6:35 AM 69.1 °F - 69.1 °F 100% 29.96 in 1.2 mi Calm Calm - N/A   Mist
6:55 AM 68.9 °F - 68.9 °F 100% 29.97 in 0.8 mi Calm Calm - N/A   Mist
7:15 AM 69.3 °F - 69.3 °F 100% 29.97 in 1.2 mi Calm Calm - N/A   Mist
7:35 AM 70.5 °F - 70.5 °F 100% 29.97 in 2.0 mi Calm Calm - N/A   Clear
7:55 AM 72.0 °F - 72.0 °F 100% 29.97 in 3.0 mi Calm Calm - N/A   Scattered Clouds
8:15 AM 73.4 °F - 73.4 °F 100% 29.97 in 5.0 mi SW 3.5 mph - N/A   Scattered Clouds
8:35 AM 74.7 °F - 74.3 °F 99% 29.96 in 7.0 mi Calm Calm - N/A   Clear
8:55 AM 76.3 °F - 75.2 °F 96% 29.95 in 7.0 mi SSW 3.5 mph - N/A   Clear
9:15 AM 77.9 °F - 75.7 °F 93% 29.95 in 7.0 mi SSW 3.5 mph - N/A   Scattered Clouds
9:35 AM 79.5 °F - 76.6 °F 91% 29.95 in 10.0 mi West 3.5 mph - N/A   Scattered Clouds
9:55 AM 80.6 °F 86.9 °F 76.8 °F 88% 29.94 in 10.0 mi Calm Calm - N/A   Clear
10:15 AM 82.6 °F 91.7 °F 77.5 °F 85% 29.93 in 10.0 mi Calm Calm - N/A   Clear
10:35 AM 84.2 °F 95.3 °F 78.3 °F 82% 29.92 in 10.0 mi Calm Calm - N/A   Clear
10:55 AM 85.6 °F 98.2 °F 78.6 °F 79% 29.92 in 10.0 mi Calm Calm - N/A   Clear
11:15 AM 87.8 °F 100.8 °F 77.9 °F 72% 29.92 in 10.0 mi South 3.5 mph - N/A   Clear
11:35 AM 88.5 °F 102.2 °F 78.1 °F 71% 29.92 in 10.0 mi South 4.6 mph - N/A   Clear
11:55 AM 89.4 °F 101.7 °F 76.8 °F 66% 29.91 in 10.0 mi South 5.8 mph - N/A   Clear
12:15 PM 90.5 °F 104.0 °F 77.2 °F 65% 29.91 in 10.0 mi SW 4.6 mph - N/A   Clear
12:35 PM 90.5 °F 103.4 °F 77.0 °F 64% 29.90 in 10.0 mi SSE 4.6 mph - N/A   Clear
12:55 PM 91.2 °F 106.7 °F 78.3 °F 66% 29.89 in 10.0 mi SSW 4.6 mph - N/A   Clear
1:15 PM 90.9 °F 105.0 °F 77.7 °F 65% 29.88 in 10.0 mi SSE 5.8 mph - N/A   Clear
1:35 PM 91.6 °F 106.3 °F 77.7 °F 64% 29.87 in 10.0 mi SSW 6.9 mph - N/A   Clear
1:55 PM 92.1 °F 107.9 °F 78.3 °F 64% 29.85 in 10.0 mi South 5.8 mph - N/A   Clear
2:15 PM 91.8 °F 105.4 °F 77.2 °F 62% 29.84 in 10.0 mi SSW 4.6 mph - N/A   Clear
2:35 PM 91.9 °F 107.3 °F 78.3 °F 64% 29.82 in 10.0 mi South 9.2 mph - N/A   Scattered Clouds
2:55 PM 91.4 °F 105.8 °F 77.5 °F 64% 29.81 in 10.0 mi South 6.9 mph - N/A   Scattered Clouds
3:15 PM 92.3 °F 107.6 °F 78.3 °F 63% 29.79 in 10.0 mi South 9.2 mph - N/A Thunderstorm Scattered Clouds
3:35 PM 90.7 °F 105.2 °F 77.9 °F 66% 29.79 in 10.0 mi SW 6.9 mph - N/A Thunderstorm Clear
3:55 PM 82.0 °F 85.5 °F 69.4 °F 65% 29.79 in 10.0 mi NW 17.3 mph 26.5 mph N/A Thunderstorm Scattered Clouds
4:15 PM 79.7 °F - 69.3 °F 70% 29.79 in 10.0 mi NW 12.7 mph 23.0 mph N/A Thunderstorm Mostly Cloudy
4:35 PM 73.4 °F - 71.6 °F 94% 29.83 in 0.8 mi West 5.8 mph 18.4 mph 0.09 in Rain , Thunderstorm Heavy Thunderstorms and Rain
4:55 PM 72.1 °F - 71.2 °F 97% 29.81 in 0.8 mi South 9.2 mph - 0.17 in Rain , Thunderstorm Heavy Thunderstorms and Rain
5:15 PM 71.1 °F - 71.1 °F 100% 29.77 in 7.0 mi South 5.8 mph - 0.03 in Rain , Thunderstorm Light Thunderstorms and Rain
5:35 PM 71.2 °F - 71.2 °F 100% 29.77 in 10.0 mi SW 4.6 mph - 0.06 in Rain Light Rain
5:55 PM 71.6 °F - 71.6 °F 100% 29.80 in 7.0 mi SW 3.5 mph - 0.09 in Rain , Thunderstorm Light Thunderstorms and Rain
6:15 PM 71.8 °F - 71.8 °F 100% 29.83 in 5.0 mi South 3.5 mph - 0.02 in Rain , Thunderstorm Light Thunderstorms and Rain
6:35 PM 71.6 °F - 71.6 °F 100% 29.83 in 5.0 mi SW 4.6 mph - 0.04 in Thunderstorm Scattered Clouds
6:55 PM 71.6 °F - 71.6 °F 100% 29.83 in 5.0 mi Calm Calm - 0.05 in Thunderstorm Clear
7:15 PM 71.6 °F - 71.6 °F 100% 29.82 in 5.0 mi Calm Calm - 0.01 in   Clear
7:35 PM 70.9 °F - 70.9 °F 100% 29.79 in 4.0 mi WNW 3.5 mph - 0.02 in   Clear
7:55 PM 70.7 °F - 70.7 °F 100% 29.76 in 5.0 mi Calm Calm - 0.02 in   Clear
8:15 PM 70.3 °F - 70.3 °F 100% 29.74 in 2.5 mi Calm Calm - N/A   Clear
8:35 PM 69.8 °F - 69.8 °F 100% 29.74 in 2.5 mi Calm Calm - 0.01 in   Clear
8:55 PM 70.3 °F - 70.3 °F 100% 29.76 in 1.8 mi Calm Calm - 0.01 in   Mist
9:15 PM 70.7 °F - 70.7 °F 100% 29.79 in 3.0 mi Calm Calm - N/A   Mostly Cloudy
9:35 PM 70.3 °F - 70.3 °F 100% 29.77 in 2.5 mi Calm Calm - N/A   Scattered Clouds
9:55 PM 70.2 °F - 70.2 °F 100% 29.75 in 3.0 mi Calm Calm - 0.01 in   Scattered Clouds
10:15 PM 69.8 °F - 69.8 °F 100% 29.74 in 2.0 mi Calm Calm - N/A   Mostly Cloudy
10:35 PM 70.3 °F - 70.3 °F 100% 29.77 in 2.5 mi NW 3.5 mph - N/A   Scattered Clouds
10:55 PM 71.1 °F - 71.1 °F 100% 29.81 in 4.0 mi NNW 4.6 mph - N/A   Mostly Cloudy
11:15 PM 72.0 °F - 72.0 °F 100% 29.82 in 10.0 mi NNW 4.6 mph - N/A   Mostly Cloudy
11:35 PM 72.0 °F - 71.8 °F 99% 29.82 in 10.0 mi WNW 6.9 mph - N/A   Overcast
11:55 PM 72.5 °F - 70.9 °F 95% 29.81 in 10.0 mi WNW 4.6 mph - N/A   Overcast